Regional Weather Roundup
Issued by NWS Cleveland, OH

Home | Current Version | Previous Version | Graphics & Text | Print | Product List | Glossary Off
Versions: 1 2 3 4 5 6 7 8 9 10 11 12 13 14 15 16 17 18 19 20 21 22 23 24 25 26 27 28 29 30 31 32 33 34 35 36 37 38 39 40 41 42 43 44 45 46 47 48 49 50

000
ASUS41 KCLE 180610
RWRCLE
OHIO REGIONAL WEATHER ROUNDUP
NATIONAL WEATHER SERVICE WILMINGTON, OH
200 AM EDT FRI APR 18 2014

NOTE: "FAIR" INDICATES FEW OR NO CLOUDS BELOW 12,000 FEET WITH NO
SIGNIFICANT WEATHER AND/OR OBSTRUCTIONS TO VISIBILITY.

OHZ001>008-015>018-024>027-034-035-043-044-180700-
   NORTHWEST OHIO

CITY           SKY/WX    TMP DP  RH WIND       PRES   REMARKS
DEFIANCE       FAIR      51  35  54 S3        30.25S
FINDLAY        FAIR      48  37  65 S7        30.24F
TOLEDO EXPRESS FAIR      50  36  58 S5        30.24S
TOLEDO METCALF FAIR      49  37  63 S6        30.25S
LIMA           FAIR      50  36  58 S8        30.25F
$$

OHZ009>014-019>023-028>033-038-089-180700-
   NORTHEAST OHIO

CITY           SKY/WX    TMP DP  RH WIND       PRES   REMARKS
CLE-HOPKINS    MOCLDY    54  31  41 SE14      30.29F
CLE-LAKEFRONT  FAIR      54  30  40 SE12      30.26S
CUY CO. ARPT   NOT AVBL
LORAIN-ELYRIA  FAIR      54  33  45 S8        30.26F
ASHTABULA      FAIR      49  27  42 SE13      30.32S
AKRON-CANTON   FAIR      50  30  46 SE7       30.29F
WOOSTER        FAIR      43  32  65 SE5       30.28F
MANSFIELD      FAIR      45  33  63 SE6       30.27F
YOUNGSTOWN     MOCLDY    46  27  47 SE9       30.31F
$$

OHZ042-051>053-060>062-070>072-077>081-180700-
  SOUTHWEST OHIO

CITY           SKY/WX    TMP DP  RH WIND       PRES   REMARKS
CINC-COVINGTON MOCLDY    50  36  58 CALM      30.26F
CINC-LUNKEN    FAIR      41  39  93 CALM      30.28F
HAMILTON       FAIR      44  39  82 CALM      30.27F
DAYTON         FAIR      51  34  52 S3        30.27S
WRIGHT-PAT AFB FAIR      43  36  75 E2        30.27S
DAYTON GENERAL FAIR      51  34  52 SE3       30.26S
WILMINGTON     FAIR      46  33  60 CALM      30.27F
$$

OHZ036-037-039>041-045>050-054>059-063>069-073>076-082>088-180700-
  CENTRAL AND SOUTHEAST OHIO

CITY           SKY/WX    TMP DP  RH WIND       PRES   REMARKS
COLUMBUS       FAIR      48  36  63 CALM      30.27S
OSU AIRPORT    FAIR      48  32  53 CALM      30.27S
BOLTON FIELD   FAIR      41  36  81 CALM      30.27S
RICKENBACK AFB FAIR      46  36  68 CALM      30.26F
NEWARK         FAIR      39  34  82 CALM      30.28S
MARION         FAIR      45  35  68 S5        30.26F
LANCASTER      FAIR      37  34  89 CALM      30.28F
ZANESVILLE     FAIR      40  30  67 SE5       30.29S
NEW PHILLY     FAIR      48  30  49 SE7       30.30F
$$



USA.gov is the U.S. government's official web portal to all federal, state and local government web resources and services.